Greenwood, Nova Scotia

1:05 AM ADT on August 21, 2017 (GMT -0300)
Greenwood

Weather History for CYZX - April, 2013

Change the Weather History Date:

Sunday, April 21, 2013

  Actual Average Record
Temperature  
Mean Temperature 44 °F -  
Max Temperature 48 °F 58 °F 66 °F (2003)
Min Temperature 39 °F 37 °F 28 °F (2009)
Degree Days  
Heating Degree Days 22    
Moisture  
Dew Point 32 °F    
Average Humidity 64    
Maximum Humidity 93    
Minimum Humidity 37    
Precipitation  
Precipitation 0.00 in 0.11 in - ()
Sea Level Pressure  
Sea Level Pressure 30.35 in    
Wind  
Wind Speed 7 mph ()    
Max Wind Speed 17 mph    
Max Gust Speed 22 mph    
Visibility 15.0 miles    
Events      
Averages and records for this station are not official NWS values.
T = Trace of Precipitation, MM = Missing Value Source: Averaged Metar Reports

Daily Weather History Graph

Daily Weather History Graph

Search for Another Location

Airport or City:

Trip Planner

Search our weather history database for the weather conditions in past years. The results will help you decide how hot, cold, wet, or windy it might be!

Date:

Astronomy

Apr. 21, 2013 Rise Set
Actual Time 6:24 AM ADT 8:12 PM ADT
Civil Twilight 5:53 AM ADT 8:44 PM ADT
Nautical Twilight 5:15 AM ADT 9:22 PM ADT
Astronomical Twilight 4:33 AM ADT 10:04 PM ADT
Moon 3:43 PM ADT 3:56 AM ADT
Length of Visible Light 14h 51m
Length of Day
13h 48m
Waxing Gibbous, 79% of the Moon is Illuminated
Apr 21
Waxing Gibbous
Apr 25
Full
May 2
Last Quarter
May 9
New
May 18
First Quarter

Hourly Weather History & Observations

Time (ADT) Temp. Windchill Dew Point Humidity Pressure Visibility Wind Dir Wind Speed Gust Speed Precip Events Conditions
12:00 AM 44.6 °F - 42.8 °F 93% 30.03 in 15.0 mi WSW 2.3 mph - N/A   Mostly Cloudy
1:00 AM 44.6 °F 42.2 °F 41.0 °F 87% 30.04 in 15.0 mi SSW 4.6 mph - N/A   Mostly Cloudy
2:00 AM 42.8 °F 38.6 °F 41.0 °F 93% 30.08 in 15.0 mi SW 6.9 mph - N/A   Mostly Cloudy
3:00 AM 42 °F - 39 °F 87% 30.11 in 15 mi WSW 6.9 mph - -   Overcast
3:00 AM 42.8 °F 39.3 °F 39.2 °F 87% 30.11 in 15.0 mi SW 5.8 mph - N/A   Overcast
4:00 AM 42.8 °F 40.1 °F 33.8 °F 70% 30.14 in 15.0 mi WSW 4.6 mph - N/A   Mostly Cloudy
5:00 AM 41.0 °F 35.8 °F 28.4 °F 61% 30.17 in 15.0 mi West 8.1 mph - N/A   Mostly Cloudy
6:00 AM 41.0 °F 37.1 °F 30.2 °F 65% 30.20 in 15.0 mi West 5.8 mph - N/A   Mostly Cloudy
7:00 AM 41.0 °F 37.1 °F 30.2 °F 65% 30.24 in 15.0 mi WSW 5.8 mph - N/A   Mostly Cloudy
8:00 AM 41.0 °F 36.4 °F 30.2 °F 65% 30.28 in 15.0 mi WNW 6.9 mph - N/A   Mostly Cloudy
9:00 AM 41 °F - 30 °F 54% 30.32 in 15 mi WNW 9.2 mph - -   Scattered Clouds
9:00 AM 41.0 °F 34.3 °F 30.2 °F 65% 30.31 in 15.0 mi West 11.5 mph - N/A   Scattered Clouds
10:00 AM 42.8 °F 36.6 °F 30.2 °F 61% 30.33 in 15.0 mi WNW 11.5 mph - N/A   Partly Cloudy
11:00 AM 42.8 °F 37.0 °F 32.0 °F 66% 30.36 in 15.0 mi NW 10.4 mph - N/A   Partly Cloudy
12:00 PM 44.6 °F 38.1 °F 32.0 °F 61% 30.39 in 15.0 mi NW 13.8 mph - N/A   Scattered Clouds
1:00 PM 44.6 °F 38.4 °F 30.2 °F 57% 30.41 in 15.0 mi WNW 12.7 mph - N/A   Scattered Clouds
2:00 PM 44.6 °F 38.4 °F 30.2 °F 57% 30.42 in 15.0 mi WNW 12.7 mph 19.6 mph N/A   Scattered Clouds
3:00 PM 47 °F - 38 °F 63% 30.43 in 15 mi WNW 17.3 mph - -   Scattered Clouds
3:00 PM 46.4 °F 40.7 °F 39.2 °F 76% 30.43 in 15.0 mi WNW 12.7 mph 19.6 mph N/A   Partly Cloudy
4:00 PM 44.6 °F 38.8 °F 24.8 °F 46% 30.46 in 15.0 mi West 11.5 mph 20.7 mph N/A   Partly Cloudy
5:00 PM 48.2 °F - 23.0 °F 37% 30.47 in 15.0 mi West 11.5 mph 21.9 mph N/A   Partly Cloudy
6:00 PM 46.4 °F 40.7 °F 23.0 °F 40% 30.49 in 15.0 mi WSW 12.7 mph - N/A   Partly Cloudy
7:00 PM 46.4 °F 41.1 °F 26.6 °F 46% 30.52 in 15.0 mi West 11.5 mph - N/A   Partly Cloudy
8:00 PM 44.6 °F 40.7 °F 26.6 °F 49% 30.55 in 15.0 mi West 6.9 mph - N/A   Clear
9:00 PM 41 °F - 28 °F 49% 30.59 in 15 mi West 4.6 mph - -  
9:00 PM 41.0 °F 38.0 °F 28.4 °F 61% 30.59 in 15.0 mi West 4.6 mph - N/A   Clear
10:00 PM 41.0 °F 36.4 °F 26.6 °F 57% 30.62 in 15.0 mi NW 6.9 mph - N/A   Clear
11:00 PM 39.2 °F 33.6 °F 28.4 °F 65% 30.64 in 15.0 mi NNW 8.1 mph - N/A   Clear